{"data":{"norad_id":61712,"epoch":"2026-05-25T03:54:27.559872Z","epoch_age_seconds":71372,"freshness":"FRESH","line1":"1 61712U 24196F   26145.16281898  .00000412  00000+0  26028-4 0  9998","line2":"2 61712  53.1603 106.2235 0001375  85.2214 274.8944 15.30193695 88864","mean_motion":15.30193695,"eccentricity":0.0001375,"inclination_deg":53.1603,"raan_deg":106.2235,"arg_perigee_deg":85.2214,"mean_anomaly_deg":274.8944,"bstar":2.6028e-5,"rev_number":8886,"period_min":94.105733457489,"perigee_km":474.29155657941,"apogee_km":476.17623357555,"semimajor_km":6853.3708950775,"source":"CELESTRAK","updated_at":"2026-05-25T13:38:19.444671Z"}}